Location: Unspecified
(0.0000°N, 0.0000°E)
Time: 08:43:22
(UTC+00:00)

Tiangong - Pass Details

Date: 17 April 2026
Orbit: 378 x 384 km, 41.5° (Epoch: 9 April)

Event Time Altitude Azimuth Distance (km) Brightness Sun altitude
Rises 19:37:03 0° 329° (NNW) 2,225 2.3 -23.9°
Reaches altitude 10° 19:39:16 10° 341° (NNW) 1,376 1.0 -24.5°
Enters shadow 19:39:32 12° 344° (NNW) 1,280 0.8 -24.5°
